STARLINK-3057 (49139 NORAD) Tracking and Keplerian Element Data

This shows tracking and keplerian element data for the satellite.

Feedback or suggestion? Click here.




ElementValue
Catalog49139
NameSTARLINK-3057
Epoch Orbit367
Epoch Day300.58334491
Epoch Year2021
RAAN4.7307
Inclination70.0001
Eccentricity0.000421
Argument of Perigee293.3625
Mean Anonmoly58.2851
Mean Motion15.69771723
Decay Rate-0.00053739
L11 49139U 21082K 21300.58334491 -.00053739 00000-0 -45075-3 0 9995
L22 49139 70.0001 4.7307 0004210 293.3625 58.2851 15.69771723 3677

Live tracking and technical data element details for STARLINK-3057 (NORAD 49139). STARLINK-3057 can be tracked NOW for your location showing map with azimuth and elevation plus other details from your city location.

Track the satellite on the map from your city or location and see movement details for azimuth, elevation, latitude, longitude, range, height, and movement on the map or in text.







IsCatalogInMostPopularTable: catalog: 49139, numindb: 23
Update: records affected: 1



GetName: 49139 STARLINK-3057

Hit Count: updated at: Thu, 28 Oct 2021 11:15:27 GMT